Regional Weather Roundup
Issued by NWS

Home | Current Version | Previous Version | Text Only | Print | Product List | Glossary Off
Versions: 1 2 3 4 5 6 7 8 9 10 11 12 13 14 15 16 17 18 19 20 21 22 23 24 25 26 27 28 29 30 31 32 33 34 35 36 37 38 39 40 41 42 43 44 45 46 47 48 49 50

000
ASUS43 KMPX 221010
RWRMN
WEATHER ROUNDUP FOR MINNESOTA
NATIONAL WEATHER SERVICE TWIN CITIES/CHANHASSEN MN
500 AM CDT WED OCT 22 2014


NOTE: "FAIR" INDICATES FEW OR NO CLOUDS BELOW 12,000 FEET WITH NO
SIGNIFICANT WEATHER AND/OR OBSTRUCTIONS TO VISIBILITY. N/A MEANS
CURRENT SKY AND/OR WEATHER CONDITIONS ARE NOT AVAILABLE.

MNZ060>063-068>070-221100-
   Twin Cities Metro

CITY           SKY/WX    TMP DP  RH WIND       PRES   REMARKS
TWIN CITIES    CLEAR     40  36  86 SE10      30.21R
ST PAUL        CLEAR     42  37  82 SE15      30.22R
CRYSTAL        CLEAR     44  37  76 SE12G20   30.18S
BLAINE         CLEAR     45  39  81 SE12      30.19R
LAKEVILLE      CLEAR     37  36  93 SE6       30.20R
EDEN PRAIRIE   CLEAR     41  37  86 SE12      30.18R
SOUTH ST PAUL  CLEAR     42  37  81 SE7       30.22R
LAKE ELMO      FAIR      41  36  81 S7        30.22S
$$
MNZ001>005-007-008-013>017-022>024-027-028-221100-
   Northwest Minnesota

CITY           SKY/WX    TMP DP  RH WIND       PRES   REMARKS
BEMIDJI        CLEAR     44  38  80 SE10      30.01S
HALLOCK        PTCLDY    55  43  62 S24G33    29.79S
ROSEAU         CLEAR     50  41  71 SE16G22   29.89F
WARROAD        CLEAR     46  43  87 S16       29.93S
THIEF RVR FALL CLEAR     52  39  62 SE16G23   29.88F
CROOKSTON      PTCLDY    54  43  66 S25G33    29.85F
FOSSTON        CLEAR     50  39  66 SE16G22   29.93F
DETROIT LAKES  PTCLDY    50  41  71 SE18      29.97F
MOORHEAD       CLEAR     54  45  71 SE25G33   29.88F
PARK RAPIDS    PTCLDY    45  38  76 S20       30.03S
MAHNOMEN       PTSUNNY   51  40  65 SE16G23   29.92F
$$
MNZ006-009>011-018-025>026-221100-
   North Central Minnesota

CITY           SKY/WX    TMP DP  RH WIND       PRES   REMARKS
BAUDETTE       CLEAR     43  37  79 SE8       29.99S
FLAG ISLAND    CLEAR     46  41  81 S24       29.93S
INTL FALLS     CLEAR     41  35  79 SE10G17   30.06F
WASKISH        CLEAR     46  39  76 SE13G18   30.00S
BIG FORK       CLEAR     43  36  75 S9G16     30.09S
LONGVILLE      CLEAR     45  37  76 SE9       30.08S
GRAND RAPIDS   CLEAR     39  34  81 SE10G16   30.11S
CRANE LAKE     CLEAR     39  36  87 S6        30.14F
ORR            CLEAR     39  34  81 SE10G16   30.10S
COOK           CLEAR     41  36  81 SE12      30.14S
WALKER         FAIR      45  38  75 SE9       30.04S
$$
MNZ012-019>021-037-221100-
   Northeast Minnesota

CITY           SKY/WX    TMP DP  RH WIND       PRES   REMARKS
DULUTH         CLEAR     40  34  79 SE8       30.19R
ELY            CLEAR     37  36  93 S7        30.17S
HIBBING        CLEAR     33  30  88 SE7       30.16R WCI  27
EVELETH        CLEAR     36  36 100 CALM      30.18R
DULUTH HARBOR  CLEAR     43  37  81 CALM      30.23R
TWO HARBORS    CLEAR     34  23  64 CALM      30.20S
SILVER BAY     CLEAR     30  28  93 CALM      30.21S
GRAND MARAIS     N/A     34  33  96 N3        30.26R
G MARAIS ARPRT SNOW      36  32  87 SE6       30.23S VSB 1/4
$$
MNZ029>031-032-039>041-046>048-054>057-064-221100-
   West Central Minnesota

CITY           SKY/WX    TMP DP  RH WIND       PRES   REMARKS
FERGUS FALLS   MOCLDY    52  39  62 SE22G29   29.96F
WHEATON        PTCLDY    50  41  71 SE22G30   29.94F
MORRIS         PTCLDY    48  41  76 SE18G25   29.99F
ALEXANDRIA     MOCLDY    47  40  76 S17       30.06R
ELBOW LAKE     CLOUDY    50  41  69 SE25G36   29.97F
WADENA         PTCLDY    45  37  76 SE15      30.03S
GLENWOOD       PTCLDY    46  39  76 SE15G21   30.06S
APPLETON       PTCLDY    52  41  66 SE16G22   30.00F
BENSON         MOCLDY    48  39  71 S14G21    30.03F
ORTONVILLE     CLEAR     52  43  71 SE16      29.96F
MADISON        CLEAR     55  45  67 SE16G22   29.99F
WILLMAR        FAIR      46  37  71 SE15G23   30.09S
$$
MNZ033>034-036-042>043-049>051-058-059-221100-
   Central Minnesota

CITY           SKY/WX    TMP DP  RH WIND       PRES   REMARKS
ST CLOUD       CLEAR     45  37  73 SE8       30.14R
SAUK CENTRE    FAIR      44  38  78 SE14      30.09R
PAYNESVILLE    PTCLDY    43  37  78 E18       30.11R
AITKIN         CLEAR     46  39  76 S16G22    30.11S
PINE RIVER     CLEAR     45  37  76 SE10      30.11S
BRAINERD       CLEAR     43  37  79 S12       30.11S
STAPLES        PTCLDY    45  37  76 SE12      30.07R
LONG PRAIRIE   FAIR      43  37  81 SE13      30.09R
LITTLE FALLS   PTCLDY    41  36  81 SE8       30.11S
LITCHFIELD     PTCLDY    46  39  76 SE9       30.13S
BUFFALO        CLEAR     43  36  78 SE5       30.16S
MAPLE LAKE     CLEAR     44  39  83 SE8       30.16R
$$
MNZ037-044-045-052-053-221100-
   East Central Minnesota

CITY           SKY/WX    TMP DP  RH WIND       PRES   REMARKS
PRINCETON      CLEAR     43  37  81 SE8       30.17R
MORA           CLEAR     37  34  87 SE6       30.19S
CAMBRIDGE      CLEAR     43  34  70 SE8       30.17R
RUSH CITY      CLEAR     40  36  84 SE7       30.20S
MOOSE LAKE     CLEAR     39  34  81 S7        30.16S
HINCKLEY       FAIR      37  36  93 CALM      30.19S
CLOQUET        CLEAR     37  34  87 SE3       30.19R
MCGREGOR       CLEAR     41  36  81 S9        30.15S
$$
MNZ071>073-080-081-089-090-097-098-221100-
   Southwest Minnesota

CITY           SKY/WX    TMP DP  RH WIND       PRES   REMARKS
MONTEVIDEO     CLOUDY    48  41  76 S15       30.04S
GRANITE FALLS  CLOUDY    47  40  74 SE13G18   30.06F
CANBY          MOCLDY    52  43  71 SE12      29.99F
MARSHALL       CLOUDY    52  39  62 S21G28    30.02S
REDWOOD FALLS  CLEAR     46  38  73 SE17      30.08F
OLIVIA         CLEAR     43  36  75 SE13      30.08F
PIPESTONE      CLEAR     52  43  71 S15G22    30.01S
WINDOM         MOCLDY    46  39  76 SE14      30.10R
WORTHINGTON    CLOUDY    50  39  66 S16G24    30.08S
JACKSON        PTCLDY    46  37  71 S16       30.12S
TRACY          MOCLDY    51  41  70 S20G28    30.04F
SLAYTON        CLOUDY    50  41  72 SE16      30.06S
$$
MNZ065>067-074>077-082>085-091>093-221100-
   South Central Minnesota

CITY           SKY/WX    TMP DP  RH WIND       PRES   REMARKS
MANKATO        CLEAR     43  34  70 SE15      30.16S
NEW ULM        CLEAR     43  37  81 SE13      30.13R
ST JAMES       CLEAR     45  37  76 SE14G20   30.14R
FAIRMONT       CLEAR     43  34  70 SE17      30.14S
GLENCOE        CLEAR     44  39  84 SE7       30.15S
FARIBAULT      CLEAR     41  37  87 SE9       30.20S
OWATONNA       CLEAR     43  36  75 SE15G22   30.19S
WASECA         CLEAR     39  32  75 SE13      30.20S
ALBERT LEA     CLEAR     41  37  87 SE16      30.20S
$$
MNZ078>079-086>088-094>096-221100-
   Southeast Minnesota

CITY           SKY/WX    TMP DP  RH WIND       PRES   REMARKS
ROCHESTER      CLEAR     38  35  89 S9        30.24R
RED WING       CLEAR     43  36  75 SE9       30.24R
STANTON        CLEAR     42  36  80 S9G16     30.19S
DODGE CENTER   CLEAR     37  36  93 S9        30.22R
WINONA         CLEAR     37  36  93 CALM      30.28R
AUSTIN         CLEAR     39  36  87 S9        30.22S
PRESTON        CLEAR     37  35  90 S10       30.25S
$$
ABBREVIATIONS USED IN REMARKS
   TC - TEMPERATURES IN CELSIUS
  WCI - WIND CHILL INDEX
   HX - HEAT INDEX
  VSB - VISIBILITY
$$



USA.gov is the U.S. government's official web portal to all federal, state and local government web resources and services.